Location: Brompton
(51.4000°N, 0.5333°E)
Time: 11:23:58
(UTC+00:00)

Cosmos 1898 Rocket - Pass Details

Date: 02 October 2021
Orbit: 752 x 784 km, 74.0° (Epoch: 17 October)

Event Time Altitude Azimuth Distance (km) Brightness Sun altitude
Rises 18:42:43 0° 178° (S) 3,206 6.6 -11.7°
Reaches altitude 10° 18:45:11 10° 170° (S) 2,290 5.8 -12.1°
Maximum altitude 18:49:57 38° 104° (ESE) 1,164 3.9 -12.8°
Drops below altitude 10° 18:54:47 10° 38° (NE) 2,325 5.7 -13.5°
Sets 18:57:19 0° 30° (NNE) 3,262 6.6 -13.9°
